When you browse on this site, cookies collect data to enhance your experience and personalize the content and advertising you see.
Visit our Privacy Policy to learn more. By continuing to use the site, you agree to this use of cookies and data.
  • In Latvia
  • List of Countries
  • For 7 days
  • Water Temperature
  • Satellite Maps
  • Weather Map
  • Weather Widgets
  • user-avatar
    Login

    Hourly Weather Baar

    Today, 16 July, Tuesday

    Time Temperature Precipitation Wind Pressure Humidity
    00:00 +13°C° 0 mm 0 mps 722 mmHg 95%
    01:00 +12°C° 0 mm 0 mps 723 mmHg 95%
    02:00 +12°C° 0 mm 0 mps 722 mmHg 95%
    03:00 +12°C° 0 mm 0 mps 722 mmHg 95%
    04:00 +11°C° 0 mm 0 mps 722 mmHg 95%
    05:00 +12°C° 0 mm 0 mps 722 mmHg 94%
    06:00 +13°C° 0 mm 0 mps 722 mmHg 93%
    07:00 +15°C° 0 mm 0 mps 723 mmHg 92%
    08:00 +17°C° 0 mm 0 mps 723 mmHg 83%
    09:00 +21°C° 0 mm 1 mps 723 mmHg 74%
    10:00 +23°C° 0 mm 1 mps 723 mmHg 66%
    11:00 +24°C° 0 mm 1 mps 723 mmHg 59%
    12:00 +26°C° 0 mm 1 mps 723 mmHg 53%
    13:00 +27°C° 0 mm 1 mps 723 mmHg 46%
    14:00 +27°C° 0 mm 1 mps 723 mmHg 45%
    15:00 +27°C° 0 mm 1 mps 723 mmHg 43%
    16:00 +27°C° 0 mm 1 mps 723 mmHg 42%
    17:00 +26°C° 0 mm 1 mps 723 mmHg 50%
    18:00 +24°C° 0 mm 1 mps 723 mmHg 59%
    19:00 +23°C° 0 mm 1 mps 722 mmHg 67%
    20:00 +21°C° 0 mm 1 mps 723 mmHg 71%
    21:00 +19°C° 0 mm 1 mps 723 mmHg 75%
    22:00 +16°C° 0 mm 1 mps 723 mmHg 79%
    23:00 +16°C° 0 mm 1 mps 723 mmHg 81%

    Tomorrow, 17 July, Wednesday

    Time Temperature Precipitation Wind Pressure Humidity
    00:00 +15°C° 0 mm 1 mps 722 mmHg 82%
    01:00 +15°C° 0 mm 1 mps 722 mmHg 84%
    02:00 +15°C° 0 mm 1 mps 722 mmHg 84%
    03:00 +14°C° 0 mm 1 mps 722 mmHg 85%
    04:00 +13°C° 0 mm 0 mps 721 mmHg 85%
    05:00 +14°C° 0 mm 0 mps 722 mmHg 82%
    06:00 +16°C° 0 mm 0 mps 722 mmHg 78%
    07:00 +17°C° 0 mm 0 mps 722 mmHg 75%
    08:00 +19°C° 0 mm 0 mps 722 mmHg 68%
    09:00 +23°C° 0 mm 1 mps 722 mmHg 62%
    10:00 +25°C° 0 mm 1 mps 722 mmHg 56%
    11:00 +26°C° 0 mm 1 mps 721 mmHg 51%
    12:00 +27°C° 0 mm 2 mps 721 mmHg 47%
    13:00 +28°C° 0 mm 2 mps 721 mmHg 43%
    14:00 +28°C° 0 mm 2 mps 721 mmHg 43%
    15:00 +27°C° 0 mm 2 mps 721 mmHg 44%
    16:00 +27°C° 0 mm 3 mps 721 mmHg 44%
    17:00 +26°C° 0.1 mm 2 mps 721 mmHg 56%
    18:00 +24°C° 0.1 mm 1 mps 721 mmHg 64%
    19:00 +23°C° 0.1 mm 1 mps 721 mmHg 73%
    20:00 +22°C° 0 mm 1 mps 721 mmHg 76%
    21:00 +20°C° 0 mm 1 mps 721 mmHg 78%
    22:00 +18°C° 0 mm 1 mps 721 mmHg 81%
    23:00 +18°C° 0 mm 1 mps 721 mmHg 82%

    Day after tomorrow, 18 July, Thursday

    Time Temperature Precipitation Wind Pressure Humidity
    00:00 +16°C° 0 mm 1 mps 721 mmHg 84%
    01:00 +16°C° 0 mm 1 mps 720 mmHg 85%
    02:00 +16°C° 0 mm 1 mps 720 mmHg 85%
    03:00 +16°C° 0 mm 1 mps 720 mmHg 85%
    04:00 +16°C° 0 mm 1 mps 720 mmHg 85%
    05:00 +16°C° 0 mm 1 mps 720 mmHg 84%
    06:00 +16°C° 0 mm 0 mps 720 mmHg 82%
    07:00 +17°C° 0 mm 0 mps 720 mmHg 80%
    08:00 +21°C° 0 mm 1 mps 721 mmHg 71%
    09:00 +23°C° 0 mm 1 mps 721 mmHg 63%
    10:00 +24°C° 0 mm 2 mps 721 mmHg 55%
    11:00 +25°C° 0 mm 2 mps 721 mmHg 52%
    12:00 +26°C° 0 mm 2 mps 721 mmHg 49%
    13:00 +27°C° 0 mm 2 mps 720 mmHg 47%
    14:00 +27°C° 0 mm 2 mps 720 mmHg 47%
    15:00 +27°C° 0 mm 3 mps 720 mmHg 47%
    16:00 +27°C° 0 mm 3 mps 720 mmHg 47%
    17:00 +25°C° 0.1 mm 2 mps 721 mmHg 55%
    18:00 +24°C° 0.1 mm 1 mps 721 mmHg 63%
    19:00 +22°C° 0.1 mm 1 mps 721 mmHg 70%
    20:00 +21°C° 0 mm 1 mps 721 mmHg 73%
    21:00 +20°C° 0 mm 1 mps 721 mmHg 75%
    22:00 +18°C° 0 mm 1 mps 722 mmHg 77%
    23:00 +18°C° 0 mm 1 mps 722 mmHg 79%

    19 July, Friday

    Time Temperature Precipitation Wind Pressure Humidity
    00:00 +16°C° 0 mm 1 mps 721 mmHg 80%
    01:00 +16°C° 0 mm 1 mps 721 mmHg 81%
    02:00 +16°C° 0 mm 1 mps 721 mmHg 81%
    03:00 +15°C° 0 mm 1 mps 721 mmHg 81%
    04:00 +15°C° 0 mm 1 mps 722 mmHg 81%
    05:00 +16°C° 0 mm 1 mps 722 mmHg 79%
    06:00 +19°C° 0 mm 1 mps 722 mmHg 76%
    07:00 +20°C° 0 mm 1 mps 722 mmHg 74%
    08:00 +22°C° 0 mm 1 mps 722 mmHg 67%
    09:00 +24°C° 0 mm 1 mps 723 mmHg 59%
    10:00 +26°C° 0 mm 1 mps 723 mmHg 52%
    11:00 +27°C° 0 mm 1 mps 723 mmHg 49%
    12:00 +27°C° 0 mm 1 mps 723 mmHg 47%
    13:00 +28°C° 0 mm 1 mps 723 mmHg 44%
    14:00 +28°C° 0 mm 2 mps 723 mmHg 46%
    15:00 +28°C° 0 mm 2 mps 723 mmHg 47%
    16:00 +28°C° 0 mm 2 mps 723 mmHg 48%
    17:00 +27°C° 0 mm 2 mps 723 mmHg 56%
    18:00 +25°C° 0 mm 1 mps 723 mmHg 65%
    19:00 +24°C° 0 mm 1 mps 723 mmHg 73%
    20:00 +22°C° 0 mm 1 mps 723 mmHg 78%
    21:00 +21°C° 0 mm 1 mps 723 mmHg 83%
    22:00 +19°C° 0 mm 1 mps 723 mmHg 88%
    23:00 +18°C° 0 mm 1 mps 724 mmHg 89%

    20 July, Saturday

    Time Temperature Precipitation Wind Pressure Humidity
    00:00 +18°C° 0 mm 1 mps 724 mmHg 90%
    01:00 +18°C° 0 mm 1 mps 724 mmHg 90%
    02:00 +18°C° 0 mm 1 mps 723 mmHg 90%
    03:00 +16°C° 0 mm 1 mps 723 mmHg 90%
    04:00 +16°C° 0 mm 1 mps 723 mmHg 90%
    05:00 +18°C° 0 mm 1 mps 723 mmHg 87%
    06:00 +18°C° 0 mm 0 mps 724 mmHg 84%
    07:00 +19°C° 0 mm 0 mps 724 mmHg 80%
    08:00 +21°C° 0 mm 0 mps 724 mmHg 72%
    09:00 +24°C° 0 mm 0 mps 724 mmHg 64%
    10:00 +28°C° 0 mm 1 mps 724 mmHg 56%
    11:00 +29°C° 0.2 mm 1 mps 724 mmHg 54%
    12:00 +29°C° 0.2 mm 1 mps 724 mmHg 51%
    13:00 +30°C° 0.2 mm 1 mps 724 mmHg 49%
    14:00 +30°C° 0.3 mm 2 mps 724 mmHg 49%
    15:00 +30°C° 0.3 mm 2 mps 724 mmHg 49%
    16:00 +30°C° 0.3 mm 2 mps 724 mmHg 49%
    17:00 +28°C° 0.8 mm 2 mps 724 mmHg 60%
    18:00 +25°C° 0.8 mm 1 mps 724 mmHg 71%
    19:00 +23°C° 0.8 mm 1 mps 724 mmHg 82%
    20:00 +22°C° 0.7 mm 1 mps 725 mmHg 85%
    21:00 +21°C° 0.7 mm 1 mps 725 mmHg 87%
    22:00 +18°C° 0.7 mm 2 mps 725 mmHg 89%
    23:00 +19°C° 1.3 mm 1 mps 726 mmHg 90%

    21 July, Sunday

    Time Temperature Precipitation Wind Pressure Humidity
    00:00 +19°C° 1.3 mm 1 mps 726 mmHg 91%
    01:00 +18°C° 1.3 mm 1 mps 726 mmHg 92%
    02:00 +18°C° 0.9 mm 1 mps 726 mmHg 92%
    03:00 +18°C° 0.9 mm 1 mps 726 mmHg 92%
    04:00 +16°C° 0.9 mm 1 mps 726 mmHg 93%
    05:00 +18°C° 0 mm 1 mps 726 mmHg 91%
    06:00 +19°C° 0 mm 1 mps 726 mmHg 89%
    07:00 +18°C° 0 mm 0 mps 726 mmHg 88%
    08:00 +21°C° 0 mm 0 mps 727 mmHg 77%
    09:00 +23°C° 0 mm 0 mps 727 mmHg 66%
    10:00 +26°C° 0 mm 0 mps 727 mmHg 54%
    11:00 +29°C° 0 mm 1 mps 727 mmHg 50%
    12:00 +30°C° 0 mm 1 mps 727 mmHg 45%
    13:00 +31°C° 0 mm 1 mps 727 mmHg 40%
    14:00 +31°C° 0 mm 1 mps 727 mmHg 39%
    15:00 +31°C° 0 mm 1 mps 727 mmHg 39%
    16:00 +31°C° 0 mm 1 mps 726 mmHg 38%
    17:00 +29°C° 0 mm 1 mps 727 mmHg 47%
    18:00 +28°C° 0 mm 1 mps 727 mmHg 56%
    19:00 +26°C° 0 mm 1 mps 727 mmHg 65%
    20:00 +24°C° 0 mm 1 mps 727 mmHg 70%
    21:00 +22°C° 0 mm 1 mps 727 mmHg 74%
    22:00 +20°C° 0 mm 1 mps 727 mmHg 78%
    23:00 +20°C° 0 mm 1 mps 727 mmHg 79%
    Show more